SCP
0 0 -0 -0 -0 -0 -0 -0 -0 -0 -0 -0 -0 -0 -0 0 0 0 0 0 0 0 0 0 0 0 0 0 0 0 0 0
0 0 -0 -0 -0 -0 -0 -0 -0 -0 -0 -0 -0 -0 0 0 0 0 0 0 0 0 0 0 0 0 0 0 0 0 0 0
-0 -0 0 -0 -0 -0 -0 -0 -0 -0 -0 0 0 0 0 0 0 0 0 0 0 0 0 0 0 0 0 0 0 0 0 0
0 0 0 0 0 0 -0 -0 0 0 0 0 0 0 0 0 0 0 0 0 0 0 0 0 0 0 0 0 0 0 0 0
0 0 0 0 0 0 0 0 0 0 0 0 0 0 0 0 0 0 0 0 0 0 0 0 0 0 0 0 0 0 0 0
0 0 0 0 0 0 0 0 0 -0 0 0 0 0 0 0 0 0 0 0 0 0 0 0 0 0 0 0 0 0 0 0
0 0 0 0 0 0 0 0 0 0 0 0 0 0 0 0 0 0 0 0 0 0 0 0 0 0 0 0 0 0 0 0
0 0 0 0 0 0 0 0 0 0 0 0 0 0 0 0 0 0 0 0 0 0 0 0 0 1 1 0 0 0 0 0
0 0 0 0 0 0 0 0 0 0 0 0 0 0 0 0 0 0 0 0 0 0 0 0 0 0 0 0 0 0 0 0
0 0 0 0 0 0 0 0 0 0 0 0 0 0 0 0 0 0 0 0 0 0 0 0 0 0 0 0 0 0 0 0
0 0 0 0 0 0 0 0 0 0 0 0 0 0 0 0 0 0 0 0 0 0 0 0 0 0 0 0 0 0 0 0
0 0 0 0 0 0 0 0 0 0 0 0 0 0 0 0 0 0 0 0 0 0 0 0 0 0 0 0 0 0 0 0
0 0 0 0 0 0 0 0 0 0 0 0 0 0 0 0 0 0 0 0 0 0 0 0 0 0 0 0 0 0 0 0
0 0 0 0 0 0 0 0 0 0 0 0 0 0 0 0 0 0 0 0 0 0 0 0 0 0 0 0 0 0 0 0
0 0 0 0 0 0 0 1 0 0 0 0 0 0 0 0 0 0 0 0 0 0 0 0 0 0 0 0 0 0 0 0
1 1 0 0 0 0 0 1 1 1 0 0 0 0 0 0 0 0 0 0 0 0 0 0 0 0 0 0 0 0 0 0
0 1 1 1 0 0 0 1 1 1 0 0 0 0 0 0 0 0 0 0 0 0 0 0 0 0 0 0 0 0 0 0
0 0 1 1 1 1 1 1 1 1 0 0 0 0 0 0 0 0 0 0 0 0 0 0 0 0 0 0 0 0 0 0
0 0 1 2 2 2 1 2 2 3 2 1 1 -0 -0 0 0 0 0 0 0 0 0 0 0 0 0 0 0 0 0 0
Wind_Speed_500mb
54 55 55 50 45 44 42 39 37 34 33 31 28 26 24 21 20 20 20 19 19 19 18 20 16 14 10 12 15 19 23 28
56 56 56 51 48 46 43 41 39 35 30 28 26 23 21 19 18 17 18 18 18 19 18 17 15 13 10 9 12 16 21 24
49 51 54 52 47 45 44 42 39 36 32 28 26 23 20 19 18 17 16 17 17 17 19 19 16 13 9 4 9 13 16 19
48 49 55 54 50 46 43 42 41 38 33 28 24 23 21 19 16 14 13 12 13 14 18 19 19 17 13 7 1 8 10 13
48 50 50 52 51 47 44 43 42 38 34 31 27 23 21 19 17 16 15 14 13 14 15 18 20 19 18 12 5 3 4 7
50 48 47 49 49 48 48 46 43 41 38 33 30 26 24 22 21 20 18 17 17 15 14 16 19 20 20 18 13 7 4 3
54 52 48 49 53 52 49 48 46 44 42 40 34 29 27 26 24 22 22 19 18 17 16 17 19 21 22 21 20 14 10 8
50 45 42 44 47 48 49 49 47 46 44 38 34 35 31 29 29 29 27 24 21 19 18 18 20 22 24 25 22 19 16 15
46 43 43 45 44 44 45 49 48 48 43 37 36 36 35 33 32 30 29 25 22 21 19 19 20 22 23 26 23 23 21 19
43 42 42 43 43 44 45 49 47 46 39 37 38 36 35 33 32 30 29 25 23 23 18 15 18 20 21 26 29 27 24 22
50 42 41 46 50 51 49 48 43 42 38 35 38 36 33 31 32 33 30 30 28 26 22 15 13 19 22 25 28 30 26 25
56 50 44 40 53 54 51 47 41 41 39 38 37 36 32 31 34 33 31 29 29 32 26 22 20 15 19 19 23 29 29 29
57 56 59 52 58 60 59 55 36 41 44 41 40 37 35 33 36 37 34 28 26 32 31 30 25 21 21 23 25 27 27 30
53 49 52 63 66 64 65 62 53 39 51 41 40 39 40 37 40 42 40 27 27 27 27 34 29 26 26 26 26 24 24 22
64 52 48 53 60 62 67 66 61 46 48 43 41 45 47 38 38 40 43 40 36 27 27 25 27 27 22 16 16 21 24 25
70 63 53 60 60 61 67 70 72 54 51 47 47 46 48 40 39 42 41 38 33 28 31 36 26 25 20 20 18 24 27 29
77 72 65 67 68 69 74 76 74 62 56 54 47 41 39 39 35 34 33 32 30 28 30 34 28 23 22 20 15 14 7 10
68 80 80 76 76 75 80 78 77 70 64 61 51 38 38 33 28 27 27 27 32 32 26 34 26 19 10 8 3 3 2 2
73 80 94 94 88 86 85 82 80 78 77 73 54 36 36 28 26 21 27 28 29 27 24 22 17 14 9 6 5 4 6 9
Wind_Direction_500mb
169 173 173 169 167 172 176 171 166 166 164 162 162 160 158 154 147 142 139 137 138 147 152 153 152 146 125 96 72 55 52 44
174 177 175 174 173 175 179 176 170 170 171 166 164 163 163 162 157 150 147 146 145 151 161 171 175 172 155 111 69 53 47 44
175 176 178 177 177 178 181 181 178 175 175 175 171 170 173 172 170 166 161 157 153 152 167 182 191 198 191 140 72 55 45 44
177 180 182 181 182 184 185 187 186 182 181 183 182 182 182 186 183 181 176 172 167 165 171 186 195 207 211 217 52 53 43 38
182 184 185 188 187 191 193 194 193 190 190 192 195 194 197 198 198 195 192 193 192 185 184 190 200 209 221 225 246 322 17 31
187 188 189 189 193 198 198 198 198 198 197 201 207 208 208 209 211 210 205 204 203 202 197 200 205 211 225 230 240 247 264 301
190 190 191 193 197 199 199 203 202 202 204 207 211 217 220 218 220 219 218 217 215 213 208 206 210 214 224 235 241 247 255 279
192 191 195 200 201 202 204 205 206 208 210 212 214 221 223 225 225 223 222 221 224 226 223 218 215 217 222 233 241 252 257 269
193 197 201 205 207 205 205 207 208 211 211 213 220 221 225 230 233 230 229 227 227 227 229 230 227 225 225 236 243 253 264 271
209 207 212 212 212 211 209 210 211 214 215 217 222 224 230 235 242 240 234 224 220 219 220 235 239 236 230 231 243 250 263 279
217 217 216 221 219 214 213 213 214 218 221 226 229 229 235 242 247 244 236 229 227 223 230 238 245 235 233 234 239 249 258 272
224 227 220 227 225 221 218 215 219 221 223 230 234 235 237 245 253 246 237 238 241 237 239 246 245 244 236 234 239 241 251 263
233 240 233 234 228 225 220 213 216 226 225 233 235 239 242 249 255 241 231 240 248 242 245 242 245 244 245 245 254 258 270 275
221 227 231 230 225 228 223 218 221 230 229 239 240 242 246 249 249 248 241 251 248 255 249 242 259 252 258 253 267 280 279 282
215 223 221 219 222 227 225 223 224 239 230 239 239 240 247 253 250 253 251 257 269 257 241 233 254 253 253 257 269 284 295 291
222 219 214 210 210 214 221 223 222 231 236 235 234 238 239 242 248 250 250 254 262 230 239 255 241 241 250 263 275 284 286 286
229 227 220 218 212 212 215 220 224 230 228 230 232 223 225 233 241 248 252 254 234 235 243 227 232 247 255 260 271 285 304 327
252 241 235 233 223 216 215 217 223 228 231 227 223 206 210 214 230 248 248 240 231 243 228 223 234 251 216 173 164 262 343 352
247 244 244 234 230 221 218 215 219 226 222 222 217 206 195 210 227 242 227 219 212 212 207 202 201 198 204 211 214 243 284 307
Wind_Speed_850mb
54 55 55 50 45 44 42 39 37 34 33 31 28 26 24 21 20 20 20 19 19 19 18 20 16 14 10 12 15 19 23 28
56 56 56 51 48 46 43 41 39 35 30 28 26 23 21 19 18 17 18 18 18 19 18 17 15 13 10 9 12 16 21 24
49 51 54 52 47 45 44 42 39 36 32 28 26 23 20 19 18 17 16 17 17 17 19 19 16 13 9 4 9 13 16 19
48 49 55 54 50 46 43 42 41 38 33 28 24 23 21 19 16 14 13 12 13 14 18 19 19 17 13 7 1 8 10 13
48 50 50 52 51 47 44 43 42 38 34 31 27 23 21 19 17 16 15 14 13 14 15 18 20 19 18 12 5 3 4 7
50 48 47 49 49 48 48 46 43 41 38 33 30 26 24 22 21 20 18 17 17 15 14 16 19 20 20 18 13 7 4 3
54 52 48 49 53 52 49 48 46 44 42 40 34 29 27 26 24 22 22 19 18 17 16 17 19 21 22 21 20 14 10 8
50 45 42 44 47 48 49 49 47 46 44 38 34 35 31 29 29 29 27 24 21 19 18 18 20 22 24 25 22 19 16 15
46 43 43 45 44 44 45 49 48 48 43 37 36 36 35 33 32 30 29 25 22 21 19 19 20 22 23 26 23 23 21 19
43 42 42 43 43 44 45 49 47 46 39 37 38 36 35 33 32 30 29 25 23 23 18 15 18 20 21 26 29 27 24 22
50 42 41 46 50 51 49 48 43 42 38 35 38 36 33 31 32 33 30 30 28 26 22 15 13 19 22 25 28 30 26 25
56 50 44 40 53 54 51 47 41 41 39 38 37 36 32 31 34 33 31 29 29 32 26 22 20 15 19 19 23 29 29 29
57 56 59 52 58 60 59 55 36 41 44 41 40 37 35 33 36 37 34 28 26 32 31 30 25 21 21 23 25 27 27 30
53 49 52 63 66 64 65 62 53 39 51 41 40 39 40 37 40 42 40 27 27 27 27 34 29 26 26 26 26 24 24 22
64 52 48 53 60 62 67 66 61 46 48 43 41 45 47 38 38 40 43 40 36 27 27 25 27 27 22 16 16 21 24 25
70 63 53 60 60 61 67 70 72 54 51 47 47 46 48 40 39 42 41 38 33 28 31 36 26 25 20 20 18 24 27 29
77 72 65 67 68 69 74 76 74 62 56 54 47 41 39 39 35 34 33 32 30 28 30 34 28 23 22 20 15 14 7 10
68 80 80 76 76 75 80 78 77 70 64 61 51 38 38 33 28 27 27 27 32 32 26 34 26 19 10 8 3 3 2 2
73 80 94 94 88 86 85 82 80 78 77 73 54 36 36 28 26 21 27 28 29 27 24 22 17 14 9 6 5 4 6 9
Wind_Direction_850mb
169 173 173 169 167 172 176 171 166 166 164 162 162 160 158 154 147 142 139 137 138 147 152 153 152 146 125 96 72 55 52 44
174 177 175 174 173 175 179 176 170 170 171 166 164 163 163 162 157 150 147 146 145 151 161 171 175 172 155 111 69 53 47 44
175 176 178 177 177 178 181 181 178 175 175 175 171 170 173 172 170 166 161 157 153 152 167 182 191 198 191 140 72 55 45 44
177 180 182 181 182 184 185 187 186 182 181 183 182 182 182 186 183 181 176 172 167 165 171 186 195 207 211 217 52 53 43 38
182 184 185 188 187 191 193 194 193 190 190 192 195 194 197 198 198 195 192 193 192 185 184 190 200 209 221 225 246 322 17 31
187 188 189 189 193 198 198 198 198 198 197 201 207 208 208 209 211 210 205 204 203 202 197 200 205 211 225 230 240 247 264 301
190 190 191 193 197 199 199 203 202 202 204 207 211 217 220 218 220 219 218 217 215 213 208 206 210 214 224 235 241 247 255 279
192 191 195 200 201 202 204 205 206 208 210 212 214 221 223 225 225 223 222 221 224 226 223 218 215 217 222 233 241 252 257 269
193 197 201 205 207 205 205 207 208 211 211 213 220 221 225 230 233 230 229 227 227 227 229 230 227 225 225 236 243 253 264 271
209 207 212 212 212 211 209 210 211 214 215 217 222 224 230 235 242 240 234 224 220 219 220 235 239 236 230 231 243 250 263 279
217 217 216 221 219 214 213 213 214 218 221 226 229 229 235 242 247 244 236 229 227 223 230 238 245 235 233 234 239 249 258 272
224 227 220 227 225 221 218 215 219 221 223 230 234 235 237 245 253 246 237 238 241 237 239 246 245 244 236 234 239 241 251 263
233 240 233 234 228 225 220 213 216 226 225 233 235 239 242 249 255 241 231 240 248 242 245 242 245 244 245 245 254 258 270 275
221 227 231 230 225 228 223 218 221 230 229 239 240 242 246 249 249 248 241 251 248 255 249 242 259 252 258 253 267 280 279 282
215 223 221 219 222 227 225 223 224 239 230 239 239 240 247 253 250 253 251 257 269 257 241 233 254 253 253 257 269 284 295 291
222 219 214 210 210 214 221 223 222 231 236 235 234 238 239 242 248 250 250 254 262 230 239 255 241 241 250 263 275 284 286 286
229 227 220 218 212 212 215 220 224 230 228 230 232 223 225 233 241 248 252 254 234 235 243 227 232 247 255 260 271 285 304 327
252 241 235 233 223 216 215 217 223 228 231 227 223 206 210 214 230 248 248 240 231 243 228 223 234 251 216 173 164 262 343 352
247 244 244 234 230 221 218 215 219 226 222 222 217 206 195 210 227 242 227 219 212 212 207 202 201 198 204 211 214 243 284 307